Flag for India Weather past 2 weeks in Vasai-Virar, Maharashtra, India

Now
84 °F

Thunderstorms. Partly cloudy.


Feels Like: 98 °F
Forecast: 77 / 83 °F
Wind: 13 mph from Northwest

Location: Bombay / Santacruz

Current Time: Aug 30, 2014 at 10:46:36 PM

Latest Report: Aug 30, 2014 at 9:40 PM


Visibility: 2 mi

Pressure: 29.59 "Hg

Humidity: 89%

Dew point: 81 °F

Location of Vasai-VirarLocation

Historic Weather in Vasai-Virar — Graph

°F

Vasai-Virar temperature yesterday

Maximum temperature yesterday: 86 °F (at 2:10 PM)
Minimum temperature yesterday: 77 °F (at 5:40 AM)
Average temperature yesterday: 82 °F

Past Weeks' High & Low Weather Summary

 TemperatureHumidityPressure
High90 °F (Aug 23, 1:40 PM)100% (Aug 18, 9:40 AM)29.86 "Hg (Aug 18, 9:40 AM)
Low75 °F (Aug 27, 8:40 AM)66% (Aug 17, 12:40 PM)29.53 "Hg (Aug 30, 4:10 PM)
Average82 °F87%29.72 "Hg
* Reported Aug 15 9:40 PM — Aug 30 9:40 PM, Vasai-Virar, Weather by CustomWeather, © 2014

Note: Actual official high and low records may vary slightly from our data, if they occured in-between our weather recording intervals... More about our weather records

Advertising

Vasai-Virar weather history for previous 24 hours

 ConditionsComfort  
Time TempWeatherWind HumidityBarometerVisibility
9:40 PM
Aug 30
84 °FThunderstorms. Partly cloudy.13 mph89%29.59 "Hg1 mi
9:10 PM84 °FThunderstorms. Partly cloudy.10 mph89%29.59 "Hg2 mi
8:40 PM84 °FPartly cloudy.13 mph84%29.59 "Hg2 mi
8:10 PM84 °FPartly cloudy.9 mph84%29.59 "Hg2 mi
7:40 PM84 °FPartly cloudy.13 mph84%29.59 "Hg2 mi
7:10 PM84 °FBroken clouds.12 mph84%29.56 "Hg2 mi
6:40 PM84 °FBroken clouds.9 mph84%29.56 "Hg2 mi
6:10 PM84 °FBroken clouds.9 mph84%29.56 "Hg2 mi
5:40 PM84 °FBroken clouds.12 mph84%29.56 "Hg2 mi
5:10 PM84 °FBroken clouds.8 mph84%29.56 "Hg2 mi
4:40 PM84 °FBroken clouds.14 mph84%29.53 "Hg2 mi
4:10 PM86 °FBroken clouds.14 mph84%29.53 "Hg2 mi
3:40 PM86 °FBroken clouds.13 mph84%29.56 "Hg2 mi
3:10 PM86 °FBroken clouds.10 mph79%29.56 "Hg2 mi
2:40 PM86 °FBroken clouds.10 mph79%29.56 "Hg2 mi
1:40 PM86 °FBroken clouds.8 mph75%29.59 "Hg1 mi
1:10 PM86 °FBroken clouds.9 mph75%29.62 "Hg1 mi
12:40 PM88 °FBroken clouds.6 mph70%29.62 "Hg1 mi
12:10 PM86 °FBroken clouds.7 mph70%29.65 "Hg1 mi
11:40 AM86 °FBroken clouds.7 mph79%29.65 "Hg1 mi
11:10 AM86 °FBroken clouds.3 mph79%29.65 "Hg1 mi
10:40 AM84 °FBroken clouds.3 mph79%29.65 "Hg1 mi
10:10 AM82 °FBroken clouds.6 mph89%29.68 "Hg1 mi
9:40 AM82 °FBroken clouds.3 mph89%29.65 "Hg1 mi
9:10 AM81 °FBroken clouds.3 mph94%29.65 "Hg1 mi
8:40 AM81 °FBroken clouds.3 mph94%29.65 "Hg1 mi
8:10 AM81 °FBroken clouds.3 mph94%29.62 "Hg1 mi
7:40 AM79 °FBroken clouds.3 mph94%29.62 "Hg1 mi
7:10 AM79 °FBroken clouds.6 mph94%29.62 "Hg1 mi
6:40 AM79 °FPartly cloudy.6 mph94%29.62 "Hg1 mi
6:10 AM79 °FPartly cloudy.3 mph94%29.62 "Hg1 mi
5:40 AM79 °FPartly cloudy.5 mph94%29.62 "Hg1 mi
5:10 AM79 °FPartly cloudy.No wind94%29.59 "Hg1 mi
4:10 AM79 °FPartly cloudy.3 mph94%29.59 "Hg1 mi
3:40 AM79 °FPartly cloudy.No wind94%29.59 "Hg1 mi
2:40 AM81 °FLight rain. Partly cloudy.6 mph94%29.62 "Hg1 mi
12:40 AM81 °FPartly cloudy.3 mph94%29.65 "Hg1 mi
12:10 AM81 °FPartly cloudy.5 mph94%29.65 "Hg1 mi
11:40 PM
Aug 29
82 °FPartly cloudy.5 mph89%29.68 "Hg1 mi
11:10 PM81 °FLight rain. Partly cloudy.6 mph94%29.68 "Hg1 mi
10:40 PM81 °FLight rain. Partly cloudy.6 mph94%29.65 "Hg1 mi
10:10 PM82 °FPartly cloudy.5 mph94%29.68 "Hg1 mi
Weather by CustomWeather, © 2014

See weather overviewHow to use our weather pages